TimeEST,TemperatureF,Dew PointF,Humidity,Sea Level PressureIn,VisibilityMPH,Wind Direction,Wind SpeedMPH,Gust SpeedMPH,PrecipitationIn,Events,Conditions,WindDirDegrees,DateUTC
12:56 AM,39.0,39.0,100,30.12,6.0,East,5.8,-,N/A,,Overcast,100,2013-01-30 05:56:00
1:56 AM,41.0,41.0,100,30.09,6.0,East,4.6,-,N/A,,Overcast,90,2013-01-30 06:56:00
2:56 AM,42.1,42.1,100,30.06,7.0,ESE,6.9,-,N/A,,Overcast,110,2013-01-30 07:56:00
3:10 AM,42.8,42.8,100,30.05,7.0,ESE,6.9,-,N/A,,Overcast,110,2013-01-30 08:10:00
3:39 AM,44.6,42.8,93,30.03,7.0,ESE,11.5,-,N/A,,Overcast,110,2013-01-30 08:39:00
3:56 AM,44.1,44.1,100,30.03,7.0,ESE,10.4,-,N/A,,Overcast,110,2013-01-30 08:56:00
4:05 AM,44.6,44.6,100,30.03,6.0,SE,5.8,-,N/A,,Overcast,130,2013-01-30 09:05:00
4:56 AM,45.0,45.0,100,30.00,6.0,ESE,9.2,-,N/A,,Overcast,110,2013-01-30 09:56:00
5:56 AM,46.9,46.9,100,29.98,5.0,SSE,6.9,-,N/A,,Overcast,150,2013-01-30 10:56:00
6:56 AM,46.9,46.9,100,29.97,4.0,SSE,4.6,-,N/A,,Overcast,160,2013-01-30 11:56:00
7:05 AM,46.4,46.4,100,29.96,3.0,SSE,3.5,-,N/A,,Overcast,160,2013-01-30 12:05:00
7:19 AM,46.4,46.4,100,29.96,1.8,SSE,3.5,-,N/A,,Overcast,160,2013-01-30 12:19:00
7:44 AM,46.4,46.4,100,29.95,0.5,SSE,5.8,-,N/A,Fog,Fog,150,2013-01-30 12:44:00
7:56 AM,48.0,48.0,100,29.94,0.2,SSE,4.6,-,N/A,Fog,Fog,150,2013-01-30 12:56:00
8:56 AM,46.9,46.9,100,29.91,0.2,South,8.1,-,N/A,Fog,Fog,170,2013-01-30 13:56:00
9:56 AM,50.0,50.0,100,29.89,1.2,SSW,11.5,-,N/A,,Overcast,200,2013-01-30 14:56:00
10:31 AM,51.8,51.8,100,29.87,2.0,SSW,10.4,-,N/A,,Overcast,200,2013-01-30 15:31:00
10:53 AM,51.8,51.8,100,29.86,2.5,SSW,8.1,-,N/A,,Overcast,200,2013-01-30 15:53:00
10:56 AM,52.0,51.1,97,29.86,2.5,SSW,10.4,-,N/A,,Overcast,200,2013-01-30 15:56:00
11:33 AM,51.8,51.8,100,29.83,3.0,SSW,6.9,-,N/A,,Overcast,210,2013-01-30 16:33:00
11:48 AM,53.6,51.8,94,29.82,3.0,WSW,8.1,17.3,N/A,,Overcast,250,2013-01-30 16:48:00
11:56 AM,53.1,52.0,96,29.81,3.0,WSW,9.2,-,N/A,,Overcast,240,2013-01-30 16:56:00
12:03 PM,53.6,51.8,94,29.80,3.0,SW,10.4,18.4,N/A,,Overcast,230,2013-01-30 17:03:00
12:56 PM,51.1,50.0,96,29.77,3.0,SSE,4.6,-,N/A,,Overcast,160,2013-01-30 17:56:00
1:38 PM,53.6,53.6,100,29.76,3.0,WSW,11.5,20.7,N/A,,Overcast,240,2013-01-30 18:38:00
1:56 PM,53.1,53.1,100,29.76,3.0,SW,10.4,-,N/A,,Overcast,230,2013-01-30 18:56:00
2:20 PM,51.8,51.8,100,29.75,2.0,SW,10.4,-,N/A,,Overcast,230,2013-01-30 19:20:00
2:35 PM,51.8,51.8,100,29.75,1.0,SW,13.8,-,N/A,,Overcast,230,2013-01-30 19:35:00
2:49 PM,51.8,51.8,100,29.74,0.2,SW,9.2,-,N/A,Fog,Fog,220,2013-01-30 19:49:00
2:56 PM,52.0,52.0,100,29.74,0.2,SSW,10.4,-,N/A,Fog,Fog,210,2013-01-30 19:56:00
3:03 PM,51.8,51.8,100,29.74,0.2,SSW,8.1,-,N/A,Fog,Fog,210,2013-01-30 20:03:00
3:13 PM,50.0,50.0,100,29.73,0.2,SSW,10.4,-,N/A,Fog,Fog,210,2013-01-30 20:13:00
3:28 PM,48.2,48.2,100,29.72,0.2,SSW,11.5,-,N/A,Fog,Fog,210,2013-01-30 20:28:00
3:38 PM,50.0,50.0,100,29.71,0.2,SSW,12.7,-,0.00,Fog-Rain,Light Rain,210,2013-01-30 20:38:00
3:56 PM,50.0,50.0,100,29.71,0.2,SSW,12.7,-,0.00,Fog,Fog,200,2013-01-30 20:56:00
4:09 PM,50.0,50.0,100,29.71,0.5,SSW,8.1,-,N/A,Fog,Fog,210,2013-01-30 21:09:00
4:22 PM,50.0,50.0,100,29.71,1.5,SSW,6.9,-,N/A,,Overcast,210,2013-01-30 21:22:00
4:34 PM,50.0,50.0,100,29.72,1.8,SSW,5.8,-,N/A,,Overcast,210,2013-01-30 21:34:00
4:51 PM,50.0,50.0,100,29.71,2.0,SSW,8.1,-,N/A,,Overcast,200,2013-01-30 21:51:00
4:56 PM,50.0,50.0,100,29.72,2.5,SSW,8.1,-,N/A,,Overcast,200,2013-01-30 21:56:00
5:04 PM,51.8,51.8,100,29.71,3.0,SSW,8.1,-,N/A,,Overcast,210,2013-01-30 22:04:00
5:56 PM,53.1,53.1,100,29.70,5.0,SW,11.5,-,N/A,,Overcast,220,2013-01-30 22:56:00
6:41 PM,51.8,51.8,100,29.66,5.0,South,17.3,-,N/A,,Overcast,190,2013-01-30 23:41:00
6:56 PM,52.0,52.0,100,29.65,5.0,SSW,20.7,-,N/A,,Overcast,200,2013-01-30 23:56:00
7:17 PM,51.8,51.8,100,29.64,4.0,SSW,17.3,-,N/A,,Overcast,200,2013-01-31 00:17:00
7:56 PM,52.0,52.0,100,29.63,4.0,SSW,21.9,-,0.00,,Overcast,200,2013-01-31 00:56:00
8:26 PM,51.8,51.8,100,29.62,4.0,SSW,17.3,-,N/A,,Overcast,210,2013-01-31 01:26:00
8:56 PM,52.0,52.0,100,29.63,4.0,WSW,8.1,18.4,N/A,,Overcast,240,2013-01-31 01:56:00
9:56 PM,51.1,51.1,100,29.59,4.0,SSW,12.7,-,N/A,,Overcast,210,2013-01-31 02:56:00
10:14 PM,51.8,51.8,100,29.57,5.0,SSW,13.8,-,N/A,,Overcast,210,2013-01-31 03:14:00
10:56 PM,52.0,52.0,100,29.54,5.0,SSW,20.7,-,N/A,,Overcast,200,2013-01-31 03:56:00
11:56 PM,51.1,50.0,96,29.49,4.0,South,20.7,29.9,N/A,,Overcast,180,2013-01-31 04:56:00